Wind_Speed
5 8 8 9 9 10 10 10 12 13 16 16 15 14 12 11 11 9 8 9 8 10 11 12 12 12 12 11 12 13 14 15 14 13 13 14 13 14 16 16 17 18 19 21
8 11 8 10 9 9 11 13 12 13 14 14 12 11 8 8 9 7 7 7 6 7 8 8 8 9 10 10 11 12 13 12 13 14 14 14 15 16 17 18 19 20 21 22
8 10 11 12 11 11 11 13 13 13 12 13 11 9 9 6 7 6 5 5 4 4 5 5 4 5 7 8 9 9 10 11 12 13 14 15 17 18 19 19 20 21 22 22
9 10 12 12 12 13 13 12 11 9 10 13 11 12 11 8 7 6 5 5 4 3 3 3 4 6 7 7 8 9 10 12 13 14 15 17 18 19 20 21 21 22 22 23
9 11 12 13 14 14 13 10 8 6 11 13 8 11 11 9 9 7 6 5 4 3 2 3 4 5 6 7 8 10 12 13 14 15 17 18 20 20 21 21 21 22 23 23
9 11 12 12 12 12 11 9 10 10 12 11 6 9 11 11 9 7 6 5 4 3 3 4 4 6 7 8 9 11 13 14 16 17 18 19 20 21 21 22 22 23 24 24
12 13 12 12 12 12 12 10 13 14 13 9 7 6 10 10 10 8 5 4 3 4 4 4 5 7 8 10 11 13 14 15 17 18 19 20 20 21 21 22 23 24 25 26
15 17 12 11 13 15 12 9 11 12 11 10 6 8 9 9 8 7 5 4 5 5 5 6 7 9 10 11 13 14 15 17 18 19 19 20 21 21 22 22 23 24 25 27
15 16 14 13 12 12 10 7 7 8 9 8 7 10 5 7 9 8 7 6 7 7 7 8 9 10 11 12 14 15 16 17 19 19 19 20 21 22 23 24 25 26 27 29
14 15 14 13 11 9 9 7 6 6 8 9 7 10 11 8 10 10 9 9 8 9 9 10 11 12 13 13 15 16 17 18 19 19 20 20 20 21 23 25 27 28 29 31
14 15 14 12 9 9 9 8 8 8 8 9 10 9 10 12 13 13 11 10 10 10 10 11 11 12 13 14 15 16 18 18 19 19 20 21 21 23 25 27 28 29 31 32
15 14 14 13 13 13 10 10 10 9 9 8 9 12 12 14 15 14 13 12 11 12 12 12 12 13 14 15 16 17 18 19 19 19 20 21 23 25 27 28 30 31 32 34
16 16 14 15 17 15 11 9 9 10 8 8 10 13 14 14 15 15 15 13 13 13 14 14 14 14 15 15 16 17 18 19 20 20 21 22 25 27 28 30 32 34 35 36
16 16 15 16 17 13 7 6 7 10 8 10 12 14 16 16 15 16 15 15 14 14 14 15 15 15 16 16 17 18 19 20 21 21 22 24 26 28 30 33 35 36 37 38
15 16 15 15 15 10 8 7 9 12 12 13 15 15 17 20 19 18 17 17 16 15 15 16 16 16 17 18 18 19 20 21 22 23 24 25 27 30 32 34 36 37 38 39
16 15 15 14 14 12 11 11 12 13 13 15 15 16 19 20 20 19 19 18 18 17 17 17 17 17 18 19 20 20 21 23 24 24 25 27 29 31 33 35 37 39 40 41
16 17 16 14 14 14 12 12 13 13 14 14 15 18 19 20 21 20 19 19 19 19 18 18 18 18 19 20 21 22 23 24 25 26 27 29 31 33 35 37 39 40 42 43
18 17 16 15 15 15 11 11 13 14 15 16 17 19 20 21 21 20 20 19 19 19 19 19 19 20 21 22 23 24 24 25 26 27 29 30 33 35 37 39 41 42 43 45
19 17 15 15 15 14 12 15 15 15 15 16 17 19 20 20 20 20 19 19 19 20 20 20 21 21 22 23 24 25 26 27 28 29 31 32 34 37 39 40 42 44 45 45
19 17 16 16 16 16 16 17 17 16 16 17 19 19 20 19 20 22 21 21 21 22 22 22 23 23 24 25 26 27 28 29 31 32 33 34 37 39 41 43 44 46 46 46
20 17 17 17 17 17 20 19 18 17 17 17 19 20 21 22 22 24 24 23 23 24 24 24 25 25 26 27 28 29 30 32 33 35 35 37 39 41 42 44 46 47 47 46
19 19 19 18 19 21 24 24 22 21 20 18 20 22 23 24 25 25 25 25 25 25 25 26 26 27 27 28 29 31 32 34 35 37 37 38 40 42 44 45 47 47 47 46
20 21 22 24 25 25 26 27 24 23 22 21 22 25 27 27 27 27 27 27 26 26 27 27 28 28 29 30 31 32 34 36 37 38 39 40 41 43 45 46 47 48 48 47
22 24 25 26 28 28 26 24 22 23 24 25 26 27 28 28 29 29 28 28 28 28 28 29 30 31 31 32 34 35 37 38 39 40 41 42 44 45 45 46 48 48 48 46
27 26 26 27 27 27 29 28 25 25 27 28 28 29 29 29 30 30 30 30 30 30 31 31 32 33 33 35 36 38 39 40 41 42 44 45 45 45 45 47 48 48 47 45
29 30 30 31 29 28 31 30 29 28 29 30 30 30 31 31 31 32 32 32 32 32 33 34 34 35 36 37 39 39 40 42 44 45 46 46 46 46 47 48 48 47 46 44
Wind_Direction
344 338 347 329 316 315 307 297 296 305 310 315 320 319 322 320 316 305 291 282 276 270 271 279 282 287 288 292 294 295 299 302 305 307 309 308 309 308 308 306 304 303 301 298
334 317 325 312 313 309 304 301 303 311 313 315 316 317 320 322 320 313 304 301 300 283 282 295 296 294 292 296 297 298 299 306 308 308 311 311 312 313 313 314 312 307 304 302
301 302 305 304 303 302 300 301 301 305 310 312 317 328 334 337 333 324 322 321 317 308 308 305 304 308 310 311 310 312 310 313 314 316 317 317 318 317 316 315 314 312 310 306
279 274 290 299 299 302 304 301 307 311 302 300 310 319 339 349 344 350 350 345 330 330 327 327 321 316 313 314 317 318 319 321 322 323 322 320 320 318 317 316 316 314 312 309
274 284 289 289 294 304 306 306 305 292 285 288 315 329 332 338 340 345 359 352 337 329 335 338 332 327 323 324 328 327 326 324 324 325 324 322 321 320 319 318 318 316 314 312
275 274 280 284 291 303 306 300 304 298 292 296 342 337 328 346 354 355 353 349 343 338 332 329 329 325 325 326 327 327 327 326 327 326 325 324 323 323 322 321 320 318 316 314
292 280 272 284 294 300 304 303 310 321 330 357 359 322 327 343 357 1 351 356 355 351 341 340 335 330 327 326 326 328 328 328 329 328 327 326 326 325 323 321 320 319 318 317
284 286 285 287 296 300 299 300 307 321 334 330 329 321 336 339 351 352 342 339 339 341 334 330 327 327 329 330 330 332 332 332 331 330 329 329 327 326 325 324 323 321 319 318
275 283 291 293 292 291 288 277 282 298 308 295 296 317 322 329 335 338 334 331 331 328 327 325 327 329 331 333 334 334 333 332 331 331 330 330 330 329 328 326 325 323 321 320
272 278 281 283 293 293 288 279 271 279 303 310 286 288 305 335 331 328 325 324 324 325 327 328 328 329 331 333 332 332 331 331 331 331 330 329 329 329 328 327 326 324 322 320
275 274 277 277 273 270 279 277 259 245 248 289 303 303 306 329 326 323 317 317 319 322 325 327 327 327 328 330 330 330 330 331 331 330 328 328 328 328 327 327 325 323 322 321
269 269 270 270 264 257 243 247 253 253 247 250 293 298 302 317 317 317 316 316 318 320 320 321 322 324 325 326 327 328 329 329 329 329 328 327 327 326 326 326 325 325 323 322
270 270 265 263 264 258 241 226 238 257 252 250 270 286 294 304 307 309 310 311 312 312 313 316 318 320 322 323 325 326 327 328 329 327 326 326 326 327 326 326 326 325 324 323
274 272 265 264 276 275 261 238 242 262 264 262 265 276 290 292 296 299 301 303 303 304 306 310 313 315 318 320 322 323 325 326 326 326 325 326 327 327 327 327 326 326 325 324
270 271 269 266 271 272 271 267 255 263 267 266 273 284 286 287 293 293 295 297 297 299 301 305 308 310 313 316 319 321 322 323 323 324 324 324 325 327 327 328 328 327 326 325
269 272 271 269 273 273 271 269 259 257 262 265 266 267 270 278 285 289 292 294 295 298 300 302 305 307 309 312 315 317 318 320 320 321 321 323 324 326 327 328 328 328 327 326
274 278 273 266 260 256 252 255 259 260 260 260 261 263 267 274 282 287 289 290 293 295 297 301 303 305 308 310 312 314 316 317 318 318 319 320 322 325 326 327 327 328 328 327
272 271 270 266 255 254 244 245 253 256 256 256 259 267 272 275 281 285 286 288 290 292 295 298 300 303 306 308 310 311 313 315 316 316 317 318 321 324 326 327 327 327 327 327
272 274 271 265 256 251 249 245 247 256 261 260 261 266 273 279 284 287 288 291 292 293 295 297 298 301 304 307 308 310 312 314 315 315 316 317 320 323 326 327 327 328 327 327
268 268 269 264 259 258 259 256 254 258 260 261 265 269 274 281 286 289 293 296 295 295 296 296 297 299 302 305 307 309 310 312 315 316 316 317 319 322 324 326 327 327 327 327
266 270 269 264 258 257 256 256 258 254 254 259 264 269 274 280 284 289 293 294 295 295 296 296 296 297 300 303 305 306 308 311 314 315 315 316 319 320 322 324 326 327 327 327
263 268 268 264 256 251 254 256 252 254 258 261 266 273 279 282 285 287 289 291 292 293 294 294 295 296 299 302 304 306 308 310 312 313 314 316 318 319 321 323 325 326 326 326
255 258 259 259 257 255 251 253 256 260 268 274 276 278 281 283 285 287 289 289 290 291 293 294 294 296 298 300 303 306 308 310 311 313 314 315 317 318 320 322 323 324 325 325
250 253 255 261 265 267 262 262 264 270 274 277 277 277 279 281 284 286 287 287 289 290 292 293 295 297 299 301 302 304 307 308 310 312 313 314 315 316 318 320 322 324 324 324
253 254 258 263 267 267 268 272 273 273 274 272 273 276 278 280 282 284 286 288 288 289 292 293 294 296 298 301 302 303 305 307 309 311 312 312 314 315 316 319 322 323 324 323
256 258 262 264 267 268 269 270 272 273 273 273 275 276 277 279 280 282 284 285 286 288 290 292 294 296 298 300 302 303 304 308 309 309 309 311 313 314 316 318 321 322 322 322
Height
5886 5887 5886 5886 5886 5886 5884 5883 5880 5877 5874 5871 5867 5863 5861 5859 5857 5856 5856 5856 5856 5856 5857 5858 5859 5860 5862 5862 5862 5863 5863 5862 5861 5861 5860 5859 5859 5858 5856 5855 5854 5853 5851 5850
5887 5886 5886 5886 5885 5884 5883 5881 5878 5876 5874 5870 5866 5862 5859 5859 5858 5857 5856 5856 5856 5855 5856 5856 5858 5859 5860 5860 5860 5861 5861 5860 5860 5859 5858 5857 5856 5855 5853 5852 5850 5849 5847 5846
5887 5887 5886 5885 5884 5882 5881 5879 5877 5875 5873 5869 5865 5862 5860 5859 5858 5856 5855 5856 5856 5856 5856 5857 5858 5859 5859 5859 5859 5859 5859 5859 5858 5857 5856 5854 5853 5851 5850 5849 5847 5845 5843 5841
5885 5885 5884 5884 5882 5881 5879 5877 5875 5873 5871 5867 5865 5863 5860 5858 5859 5856 5856 5856 5856 5856 5857 5857 5858 5858 5858 5859 5859 5858 5858 5857 5856 5855 5853 5852 5850 5849 5847 5845 5843 5841 5839 5837
5883 5882 5882 5881 5880 5878 5877 5875 5872 5871 5868 5864 5863 5862 5861 5858 5858 5856 5856 5856 5856 5856 5857 5857 5858 5858 5858 5858 5858 5857 5856 5856 5854 5853 5851 5849 5847 5845 5843 5841 5839 5837 5835 5832
5880 5879 5879 5879 5877 5876 5875 5873 5871 5868 5865 5861 5862 5862 5860 5858 5857 5857 5856 5857 5857 5856 5857 5858 5858 5858 5858 5857 5857 5856 5855 5854 5852 5850 5848 5846 5844 5842 5839 5837 5835 5832 5830 5828
5877 5876 5875 5875 5874 5874 5873 5872 5869 5865 5862 5861 5863 5863 5862 5860 5859 5858 5858 5858 5858 5857 5857 5858 5858 5857 5857 5856 5855 5854 5853 5851 5849 5847 5845 5843 5841 5838 5836 5834 5831 5829 5826 5823
5875 5872 5872 5872 5872 5872 5871 5870 5870 5868 5865 5864 5863 5863 5863 5861 5860 5860 5859 5859 5858 5858 5857 5857 5857 5856 5855 5854 5853 5851 5850 5848 5846 5844 5842 5840 5838 5835 5833 5830 5827 5824 5821 5818
5874 5871 5870 5870 5871 5871 5869 5868 5869 5868 5866 5864 5863 5861 5862 5861 5861 5860 5859 5858 5858 5857 5857 5856 5855 5854 5853 5852 5850 5849 5847 5846 5844 5841 5839 5837 5835 5832 5829 5826 5823 5820 5817 5813
5871 5870 5869 5868 5868 5868 5868 5867 5868 5867 5865 5864 5862 5860 5859 5860 5860 5860 5859 5858 5857 5856 5855 5854 5854 5852 5851 5850 5848 5847 5845 5843 5841 5839 5836 5834 5832 5829 5826 5823 5820 5816 5812 5808
5868 5868 5867 5866 5865 5865 5866 5866 5865 5865 5865 5864 5860 5861 5859 5860 5860 5859 5858 5857 5856 5855 5854 5853 5852 5851 5849 5848 5846 5845 5843 5841 5838 5836 5834 5831 5829 5826 5823 5819 5816 5811 5807 5802
5864 5865 5864 5863 5862 5861 5861 5863 5864 5864 5864 5863 5862 5862 5858 5858 5858 5857 5856 5855 5854 5853 5852 5851 5850 5849 5848 5846 5844 5842 5840 5838 5836 5833 5831 5828 5825 5822 5819 5815 5810 5806 5801 5796
5861 5861 5861 5860 5859 5856 5857 5859 5860 5861 5862 5862 5861 5862 5858 5857 5857 5856 5855 5854 5853 5852 5850 5849 5848 5847 5845 5843 5842 5840 5837 5835 5833 5830 5827 5825 5821 5818 5814 5809 5805 5800 5794 5789
5857 5857 5857 5857 5854 5852 5853 5855 5857 5859 5859 5860 5859 5857 5855 5855 5855 5854 5853 5852 5851 5850 5849 5847 5846 5844 5843 5841 5839 5837 5834 5832 5829 5827 5824 5820 5817 5813 5809 5804 5799 5793 5787 5782
5852 5853 5853 5852 5851 5850 5852 5853 5854 5856 5857 5857 5856 5855 5853 5851 5851 5851 5849 5849 5848 5847 5846 5845 5843 5841 5840 5838 5836 5833 5831 5829 5826 5823 5819 5816 5812 5808 5803 5798 5792 5786 5780 5774
5848 5848 5849 5849 5848 5847 5849 5850 5852 5853 5853 5854 5853 5853 5850 5849 5848 5848 5847 5846 5845 5843 5842 5841 5840 5838 5836 5834 5832 5830 5827 5825 5821 5818 5815 5811 5807 5802 5797 5792 5786 5780 5773 5767
5843 5844 5845 5845 5845 5844 5847 5848 5849 5849 5849 5850 5849 5848 5846 5846 5845 5845 5844 5843 5841 5840 5838 5837 5836 5834 5832 5830 5828 5826 5823 5820 5817 5813 5809 5805 5801 5796 5791 5785 5779 5772 5766 5759
5839 5839 5840 5840 5841 5841 5844 5844 5844 5844 5844 5845 5844 5843 5843 5842 5841 5840 5839 5839 5837 5836 5835 5833 5832 5830 5828 5826 5823 5821 5818 5815 5811 5808 5804 5799 5795 5790 5784 5778 5771 5765 5758 5750
5835 5835 5835 5836 5835 5836 5838 5838 5838 5839 5839 5839 5839 5838 5838 5837 5837 5836 5835 5834 5833 5832 5830 5829 5827 5825 5823 5821 5818 5815 5812 5809 5805 5801 5797 5793 5788 5782 5777 5770 5764 5757 5749 5742
5829 5830 5831 5832 5832 5832 5833 5833 5832 5834 5834 5834 5834 5834 5833 5833 5832 5831 5830 5829 5828 5827 5825 5823 5822 5820 5818 5815 5812 5809 5806 5803 5799 5795 5790 5785 5780 5775 5769 5762 5755 5748 5741 5733
5824 5824 5826 5827 5828 5828 5827 5826 5828 5829 5829 5828 5829 5828 5828 5827 5827 5826 5824 5823 5823 5821 5819 5818 5816 5814 5812 5809 5806 5803 5800 5796 5792 5788 5783 5778 5773 5767 5761 5754 5747 5740 5732 5725
5820 5820 5821 5822 5822 5824 5821 5822 5822 5822 5822 5822 5823 5823 5821 5821 5820 5820 5818 5817 5817 5815 5813 5812 5810 5807 5805 5803 5800 5796 5793 5789 5785 5780 5775 5770 5765 5758 5752 5746 5738 5731 5724 5716
5816 5817 5816 5816 5817 5814 5813 5814 5813 5815 5816 5816 5818 5817 5816 5815 5814 5813 5812 5811 5810 5808 5807 5805 5803 5800 5798 5795 5792 5789 5785 5781 5777 5772 5767 5762 5756 5750 5743 5737 5730 5722 5715 5708
5810 5810 5810 5810 5809 5808 5806 5805 5806 5809 5811 5811 5811 5811 5810 5809 5807 5806 5805 5804 5802 5801 5799 5797 5795 5792 5790 5787 5784 5781 5777 5773 5768 5763 5758 5753 5747 5741 5735 5728 5721 5713 5706 5699
5802 5803 5804 5804 5803 5803 5801 5801 5802 5803 5805 5804 5804 5803 5803 5802 5800 5799 5797 5796 5795 5793 5791 5789 5786 5784 5781 5779 5775 5771 5768 5763 5759 5754 5749 5743 5738 5732 5726 5719 5712 5705 5697 5690
5796 5797 5798 5797 5797 5797 5796 5796 5796 5796 5796 5796 5796 5796 5795 5794 5792 5790 5789 5788 5786 5785 5782 5780 5778 5775 5772 5769 5766 5762 5758 5754 5749 5744 5738 5733 5727 5722 5716 5709 5703 5695 5689 5682